Regional Weather Roundup
Issued by NWS

Home | Current Version | Previous Version | Graphics & Text | Print | Product List | Glossary Off
Versions: 1 2 3 4 5 6 7 8 9 10 11 12 13 14 15 16 17 18 19 20 21 22 23 24 25 26 27 28 29 30 31 32 33 34 35 36 37 38 39 40 41 42 43 44 45 46 47 48 49 50

591
ASUS43 KLSX 241357
RWRMO

WEATHER SUMMARY FOR MISSOURI
NATIONAL WEATHER SERVICE SPRINGFIELD MO
800 AM CST SAT FEB 24 2018

NOTE: "FAIR" INDICATES FEW OR NO CLOUDS BELOW 12,000 FEET WITH NO
       SIGNIFICANT WEATHER AND/OR OBSTRUCTIONS TO VISIBILITY.
       CURRENT SKY AND/OR WEATHER CONDITIONS ARE NOT AVAILABLE FOR
       CHILLICOTHE AND FARMINGTON.

MOZ001>031-035>038-043-044-053-054-241500-
...NORTHERN AND WESTERN MISSOURI...

CITY           SKY/WX    TMP DP  RH WIND       PRES   REMARKS
KANSAS CTY INT DRIZZLE   34  32  92 E13       29.93F FOG     WCI  25
LEE`S SUMMIT   CLOUDY    35  35 100 E13       29.93F FOG     WCI  26
ST JOSEPH      FOG       32  32 100 E7        29.93F VSB 1   WCI  26
CHILLICOTHE      N/A     33  32  96 E5        29.99F WCI  29

$$
MOZ066>068-077>081-088>096-101>105-241500-
...SOUTHWEST MISSOURI...

CITY           SKY/WX    TMP DP  RH WIND       PRES   REMARKS
SPRINGFIELD    CLOUDY    49  48  97 SE7       29.92R
JOPLIN         FOG       42  42 100 CALM      29.90F VSB 1/4
BRANSON        FOG       48  48 100 SE7       29.94S VSB 3/4

$$
MOZ032>034-039>042-045>050-055>058-069>072-241500-
...CENTRAL MISSOURI...

CITY           SKY/WX    TMP DP  RH WIND       PRES   REMARKS
COLUMBIA       NOT AVBL
JEFFERSON CITY CLOUDY    39  37  92 E7        29.99F FOG
ROLLA          CLOUDY    45  45 100 E7        29.96F
SEDALIA        CLOUDY    37  37 100 E10       29.95F FOG     WCI  30
WARRENSBURG    CLOUDY    36  34  93 E9        29.93F FOG     WCI  29

$$
MOZ051-052-059>065-241500-
...EAST CENTRAL MISSOURI...

CITY           SKY/WX    TMP DP  RH WIND       PRES   REMARKS
ST LOUIS INTL  LGT RAIN  43  42  97 NE6       30.02R

$$
MOZ072>076-082>087-097>100-106>115-241500-
...SOUTH CENTRAL AND SOUTHEAST MISSOURI...

CITY           SKY/WX    TMP DP  RH WIND       PRES   REMARKS
CAPE GIRARDEAU CLOUDY    49  48  97 E12       29.99F FOG
POPLAR BLUFF   LGT RAIN  49  49 100 NE7       29.97F FOG
WEST PLAINS    CLOUDY    48  47  96 E5        29.97F

$$



USA.gov is the U.S. government's official web portal to all federal, state and local government web resources and services.